ROMMA est une association bénévole à but non lucratif. Votre soutien est indispensable : ADHERER à ROMMA ou FAIRE un DON

Val-d'Arly - (73, Savoie)

Beaufortain (2050 m)   Longitude: 06° 35' 21" E   Latitude: 45° 46' 53" N Station romma n°118
 

Détail journalier du     <<     >>

Température Humidité Vent Dir Rafale Dir. rafale Ensol.
Heure (°C) (%) (km/h) (km/h) (min)
01:00 -4.27527---39---0
02:00 -2.76018---29---0
03:00 -3.2659---23---0
04:00 -3.4646---18---0
05:00 -2.6556---13---0
06:00 -2.4554---8---0
07:00 -1.7535---13---0
08:00 -2.0544---15---0
09:00 -1.4697---31---40
10:00 0.06416---31---60
11:00 1.3558---16---60
12:00 2.4571---6---60
13:00 0.7683---8---60
14:00 0.5657---15---40
15:00 0.7626---10---30
16:00 0.8645---10---0
17:00 1.2623---10---20
18:00 0.6655---13---0
19:00 0.3685---10---0
20:00 0.3726---15---0
21:00 0.7719---18---0
22:00 1.2684---8---0
23:00 1.1704---10---0
minuit -0.2787---15---0

Graphique du 19-11-2019

 

Serveur OMMA